[[{"header":{"parameterUnit":"m.s-1","parameterCategory":1,"la1":30.2991,"la2":30.254,"lo1":-89.0895,"lo2":-89.0444,"dy":0.0017,"dx":0.0017,"nx":28,"ny":28,"refTime":"2023-03-18T21:00:00:Z","depth":0,"parameterNumber":2,"parameterNumberName":"U-component_of_WINDS"},"data":[0,0,0,0,0,0,0,0,0,0,0,0,0,0,0,0,0,0,0,0,0,0,0,0,0,0,0,0,0,0,0,0,0,0,0,0,0,0,0,0,0,0,0,0,0,0,0,0,0,0,0,0,0,0,0,0,0,0,-2.6372,-2.6373,0,-2.6475,-2.6476,-2.6477,-2.6394,-2.6391,-2.6387,-2.6384,-2.6488,-2.6494,-2.65,0,0,0,0,0,0,0,0,0,0,0,0,0,-2.6101,-2.6107,-2.6372,-2.6373,-2.6374,-2.6474,-2.6476,-2.6477,-2.6395,-2.6391,-2.6387,-2.6383,-2.6486,-2.6493,-2.6501,0,0,0,0,0,0,0,0,0,0,0,0,0,-2.6213,-2.6108,-2.6372,-2.6346,-2.6344,-2.6474,-2.6476,-2.6478,-2.6396,-2.6391,-2.6385,-2.6381,-2.6484,-2.6493,-2.6502,-2.6663,0,0,-2.6529,-2.6533,0,0,0,0,0,0,0,0,-2.6207,-2.6223,-2.6348,-2.6348,-2.6346,-2.6416,-2.6418,-2.654,-2.6397,-2.6376,-2.6384,-2.6378,-2.6469,-2.6479,-2.6509,-2.6667,-2.6672,-2.653,-2.6536,-2.654,-2.6542,0,0,0,0,0,0,0,-2.6199,-2.6218,-2.6412,-2.635,-2.6349,-2.6327,-2.6338,-2.6441,-2.6451,-2.6378,-2.6372,-2.6385,-2.6467,-2.6501,-2.6511,-2.6673,-2.653,-2.6538,-2.6544,-2.6547,-2.6965,-2.6971,0,0,0,0,0,0,-2.6194,-2.6212,-2.6409,-2.6415,-2.6262,-2.6337,-2.6348,-2.6399,-2.6449,-2.6452,-2.639,-2.6381,-2.6488,-2.6501,-2.6515,-2.6705,-2.6539,-2.6548,-2.6553,-2.696,-2.6967,-2.6973,0,0,0,0,0,0,-2.6189,-2.6213,-2.6405,-2.6312,-2.6335,-2.6347,-2.6405,-2.6404,-2.6438,-2.6458,-2.6459,-2.6423,-2.6484,-2.6502,-2.6626,-2.6707,-2.6552,-2.656,-2.6953,-2.6962,-2.697,-2.7087,0,0,0,0,0,0,-2.6181,-2.6211,-2.6274,-2.6314,-2.634,-2.6516,-2.641,-2.641,-2.6454,-2.6443,-2.649,-2.6492,-2.6482,-2.6613,-2.6635,-2.6717,-2.6567,-2.6946,-2.6957,-2.6967,-2.7076,-2.7099,-2.7118,0,0,0,0,0,-2.6172,-2.6303,-2.6277,-2.6301,-2.6419,-2.6521,-2.6536,-2.6521,-2.6461,-2.6523,-2.6535,-2.6491,-2.6694,-2.6626,-2.665,-2.6736,-2.6941,-2.6954,-2.6966,-2.7067,-2.7094,-2.7117,0,0,0,0,0,0,-2.6272,-2.6308,-2.628,-2.6428,-2.6472,-2.6507,-2.6585,-2.6551,-2.6613,-2.6601,-2.658,-2.6591,-2.6721,-2.6741,-2.6664,-2.6893,-2.6807,-2.6826,-2.6876,-2.6902,-2.6922,-2.6915,-2.6575,0,0,0,0,0,-2.6311,-2.6392,-2.6418,-2.6547,-2.657,-2.6574,-2.6618,-2.6603,-2.6647,-2.6666,-2.6687,-2.6732,-2.6805,-2.6854,-2.6924,-2.7078,-2.7086,-2.7148,-2.7169,-2.7186,-2.7203,-2.7283,-2.7311,-2.7015,-2.7015,-2.7014,0,0,-2.6393,-2.6423,-2.6475,-2.6567,-2.66,-2.6683,-2.659,-2.6683,-2.6743,-2.6679,-2.6798,-2.6815,-2.6863,-2.7002,-2.7065,-2.7022,-2.7286,-2.7203,-2.7216,-2.7223,-2.7299,-2.7327,-2.7352,-2.7023,-2.7022,-2.702,0,0,-2.6585,-2.6616,-2.6725,-2.6759,-2.6809,-2.681,-2.6836,-2.6876,-2.6885,-2.7003,-2.6956,-2.7027,-2.7155,-2.719,-2.7225,-2.7427,-2.7387,-2.7449,-2.7559,-2.7638,-2.7661,-2.7682,-2.7753,-2.7778,-2.7465,-2.7466,-2.7466,0,-2.6681,-2.6805,-2.6785,-2.6881,-2.6922,-2.6867,-2.6976,-2.7009,-2.7079,-2.7108,-2.706,-2.7217,-2.7246,-2.7392,-2.7441,-2.7471,-2.7499,-2.7445,-2.766,-2.768,-2.7699,-2.7766,-2.7793,-2.7473,-2.7472,-2.7471,-2.7471,0,-2.6919,-2.7005,-2.7087,-2.7156,-2.7206,-2.7308,-2.7303,-2.7355,-2.7335,-2.734,-2.746,-2.7491,-2.7565,-2.7598,-2.7579,-2.7741,-2.7713,-2.7663,-2.7577,-2.7735,-2.7797,-2.7823,-2.7483,-2.7481,-2.7478,-2.7477,0,0,-2.7179,-2.7233,-2.7264,-2.7293,-2.7342,-2.7408,-2.7506,-2.7578,-2.7623,-2.7672,-2.7753,-2.7861,-2.7813,-2.7853,-2.7837,-2.7906,-2.8062,-2.7847,-2.7848,-2.7885,-2.8239,-2.8277,-2.8307,-2.8035,-2.804,-2.8044,-2.8235,0,-2.7373,-2.7544,-2.7529,-2.7691,-2.7769,-2.7716,-2.7801,-2.784,-2.7847,-2.7913,-2.792,-2.7997,-2.7929,-2.7952,-2.8019,-2.8029,-2.8133,-2.8015,-2.8109,-2.8113,-2.8099,-2.834,-2.8381,-2.8559,-2.8259,-2.8264,-2.8267,0,-2.7622,-2.7679,-2.785,-2.7884,-2.7917,-2.7994,-2.8056,-2.8121,-2.8162,-2.8162,-2.8205,-2.8176,-2.8273,-2.8184,-2.8316,-2.8236,-2.8273,-2.8284,-2.829,-2.8299,-2.82,-2.8355,-2.8616,-2.8643,-2.8305,-2.8302,-2.8299,0,-2.7794,-2.7913,-2.803,-2.8056,-2.81,-2.8155,-2.8176,-2.8212,-2.8255,-2.831,-2.8337,-2.8402,-2.8438,-2.8488,-2.8476,-2.8413,-2.8611,-2.8521,-2.8612,-2.8613,-2.8657,-2.8654,-2.8928,-2.8681,-2.8681,-2.868,-2.868,0,-2.8012,-2.8118,-2.8107,-2.8179,-2.8295,-2.8275,-2.839,-2.8403,-2.8436,-2.8508,-2.8465,-2.8534,-2.8515,-2.8582,-2.8573,-2.8683,-2.8699,-2.8701,-2.8697,-2.8705,-2.8705,-2.8729,-2.8716,-2.8687,-2.8686,-2.8685,-2.8683,0,-2.8224,-2.8221,-2.8345,-2.8375,-2.8385,-2.8469,-2.8495,-2.8561,-2.8564,-2.8655,-2.8676,-2.8679,-2.8756,-2.8749,-2.8835,-2.8829,-2.8964,-2.8946,-2.8951,-2.8947,-2.9038,-2.9029,-2.9337,-2.9375,-2.9104,-2.9107,-2.9109,0,-2.8364,-2.8444,-2.8482,-2.8528,-2.8552,-2.8626,-2.8669,-2.865,-2.8697,-2.8748,-2.8809,-2.8881,-2.8938,-2.9062,-2.9072,-2.9136,-2.9119,-2.9222,-2.9129,-2.9133,-2.912,-2.9115,-2.9122,-2.9241,-2.9244,-2.9247,-2.9249,0,-2.8611,-2.8605,-2.8669,-2.8733,-2.8786,-2.8835,-2.8879,-2.8918,-2.8904,-2.8958,-2.9036,-2.908,-2.9166,-2.9238,-2.9299,-2.9318,-2.9281,-2.9278,-2.9302,-2.9311,-2.931,-2.931,-2.9001,-2.9271,-2.9269,-2.9267,-2.9266,-2.9265,-2.8791,-2.8858,-2.8896,-2.8968,-2.8999,-2.9041,-2.9104,-2.9114,-2.9178,-2.9248,-2.9232,-2.9319,-2.9355,-2.9433,-2.9458,-2.9525,-2.9487,-2.9523,-2.9532,-2.9541,-2.9551,-2.9299,-2.9536,-2.9535,-2.9534,-2.9534,-2.9533,0,-2.9035,-2.9056,-2.9122,-2.9185,-2.9242,-2.9201,-2.9247,-2.9297,-2.9374,-2.9411,-2.9467,-2.9555,-2.9623,-2.9637,-2.9702,-2.9752,-2.9736,-2.977,-2.9766,-2.9771,-2.9581,-2.9553,-2.9781,-2.9781,-2.9781,-2.9781,-2.9781,-2.9781,-2.9169,-2.9281,-2.9279,-2.9404,-2.9424,-2.9509,-2.9538,-2.9576,-2.9605,-2.9705,-2.9761,-2.977,-2.9797,-2.9863,-2.9923,-2.9925,-2.995,-2.9991,-2.9986,-2.9809,-2.9784,-2.9761,-2.9734,-2.9996,-2.9997,-3.0169,-3.0171,-3.0172]},{"header":{"parameterUnit":"m.s-1","parameterCategory":1,"la1":30.2991,"la2":30.254,"lo1":-89.0895,"lo2":-89.0444,"dy":0.0017,"dx":0.0017,"nx":28,"ny":28,"refTime":"2023-03-18T21:00:00:Z","depth":0,"parameterNumber":3,"parameterNumberName":"V-component_of_WINDS"},"data":[0,0,0,0,0,0,0,0,0,0,0,0,0,0,0,0,0,0,0,0,0,0,0,0,0,0,0,0,0,0,0,0,0,0,0,0,0,0,0,0,0,0,0,0,0,0,0,0,0,0,0,0,0,0,0,0,0,0,-6.0437,-6.0438,0,-6.0575,-6.0577,-6.0578,-6.05,-6.0496,-6.0492,-6.0489,-6.0627,-6.0634,-6.0642,0,0,0,0,0,0,0,0,0,0,0,0,0,-6.0099,-6.0106,-6.0437,-6.0438,-6.044,-6.0575,-6.0577,-6.0579,-6.0501,-6.0496,-6.0491,-6.0487,-6.0625,-6.0633,-6.0642,0,0,0,0,0,0,0,0,0,0,0,0,0,-6.0242,-6.0108,-6.0436,-6.0417,-6.0417,-6.0575,-6.0577,-6.0579,-6.0502,-6.0496,-6.049,-6.0485,-6.0622,-6.0633,-6.0643,-6.0826,0,0,-6.0677,-6.0681,0,0,0,0,0,0,0,0,-6.0234,-6.0255,-6.0418,-6.0419,-6.0419,-6.0515,-6.0508,-6.0662,-6.0503,-6.047,-6.0489,-6.0482,-6.0594,-6.0607,-6.0646,-6.0833,-6.0838,-6.0678,-6.0684,-6.0689,-6.0692,0,0,0,0,0,0,0,-6.0224,-6.0248,-6.0491,-6.0421,-6.0421,-6.04,-6.0414,-6.0537,-6.0562,-6.0472,-6.0467,-6.0484,-6.0593,-6.0635,-6.0648,-6.0841,-6.0677,-6.0687,-6.0694,-6.0698,-6.118,-6.1186,0,0,0,0,0,0,-6.0216,-6.0241,-6.0487,-6.0495,-6.0311,-6.0411,-6.0427,-6.049,-6.0561,-6.0566,-6.0489,-6.048,-6.0619,-6.0636,-6.0653,-6.0869,-6.0689,-6.0699,-6.0705,-6.1174,-6.1182,-6.1189,0,0,0,0,0,0,-6.0209,-6.0239,-6.0481,-6.0367,-6.0396,-6.0423,-6.0494,-6.0495,-6.0537,-6.0574,-6.0577,-6.0528,-6.0616,-6.0637,-6.0783,-6.0873,-6.0704,-6.0714,-6.1167,-6.1177,-6.1185,-6.1304,0,0,0,0,0,0,-6.02,-6.0237,-6.0308,-6.0369,-6.0402,-6.0611,-6.05,-6.0502,-6.0557,-6.0546,-6.0611,-6.0616,-6.0613,-6.0767,-6.0794,-6.0885,-6.0722,-6.1159,-6.1171,-6.1182,-6.1293,-6.1317,-6.1338,0,0,0,0,0,-6.0188,-6.0336,-6.0312,-6.0343,-6.0492,-6.0617,-6.0636,-6.0629,-6.0565,-6.0635,-6.0658,-6.0614,-6.0859,-6.0783,-6.0812,-6.0908,-6.1153,-6.1168,-6.1181,-6.1283,-6.1312,-6.1337,0,0,0,0,0,0,-6.0285,-6.0344,-6.0318,-6.0491,-6.0549,-6.0603,-6.0692,-6.0661,-6.0739,-6.0726,-6.0714,-6.0729,-6.088,-6.0908,-6.0823,-6.1086,-6.0996,-6.1016,-6.1062,-6.1091,-6.1113,-6.1102,-6.0732,0,0,0,0,0,-6.0327,-6.0424,-6.047,-6.0618,-6.0648,-6.0666,-6.072,-6.071,-6.0769,-6.0794,-6.0827,-6.0886,-6.0975,-6.1035,-6.1119,-6.1296,-6.1308,-6.1376,-6.1399,-6.1417,-6.1435,-6.1527,-6.1557,-6.1235,-6.1235,-6.1235,0,0,-6.0413,-6.0457,-6.052,-6.0638,-6.0682,-6.0782,-6.0687,-6.0797,-6.087,-6.081,-6.0949,-6.0976,-6.104,-6.1201,-6.1274,-6.1229,-6.1526,-6.1435,-6.1449,-6.1457,-6.1545,-6.1575,-6.1602,-6.1245,-6.1243,-6.1241,0,0,-6.0621,-6.0666,-6.0792,-6.0839,-6.0907,-6.0917,-6.0947,-6.1006,-6.1021,-6.1161,-6.1117,-6.1203,-6.1359,-6.1405,-6.1449,-6.1673,-6.1634,-6.17,-6.1817,-6.1908,-6.1933,-6.1955,-6.2033,-6.2061,-6.1718,-6.1718,-6.1719,0,-6.072,-6.087,-6.0861,-6.0974,-6.1026,-6.0977,-6.1103,-6.1148,-6.124,-6.1276,-6.1225,-6.1417,-6.1458,-6.1628,-6.1682,-6.172,-6.1752,-6.1693,-6.193,-6.1953,-6.1973,-6.2047,-6.2076,-6.1726,-6.1725,-6.1724,-6.1723,0,-6.0986,-6.109,-6.1184,-6.1274,-6.1337,-6.1456,-6.1463,-6.1527,-6.1511,-6.1526,-6.1667,-6.1713,-6.1805,-6.1845,-6.1831,-6.2013,-6.1982,-6.1932,-6.184,-6.2012,-6.208,-6.2109,-6.1736,-6.1734,-6.1732,-6.173,0,0,-6.126,-6.1343,-6.1378,-6.1417,-6.1487,-6.1567,-6.1682,-6.1773,-6.1826,-6.1891,-6.1986,-6.2118,-6.207,-6.212,-6.211,-6.219,-6.236,-6.2129,-6.213,-6.2168,-6.256,-6.2597,-6.263,-6.2336,-6.2341,-6.2345,-6.2554,0,-6.1471,-6.1675,-6.1669,-6.1857,-6.1951,-6.1905,-6.2005,-6.2058,-6.2074,-6.2155,-6.2172,-6.2265,-6.2196,-6.2226,-6.2303,-6.2324,-6.2439,-6.2309,-6.2421,-6.2426,-6.2406,-6.2666,-6.2706,-6.2901,-6.2581,-6.2586,-6.2589,0,-6.1745,-6.1819,-6.2017,-6.2071,-6.211,-6.2201,-6.2281,-6.236,-6.2418,-6.2424,-6.2479,-6.2456,-6.257,-6.2476,-6.2632,-6.2543,-6.2589,-6.2606,-6.2613,-6.2623,-6.2517,-6.2681,-6.2964,-6.2992,-6.2632,-6.2628,-6.2625,0,-6.1922,-6.2071,-6.2208,-6.2243,-6.231,-6.2374,-6.2405,-6.2457,-6.2511,-6.2581,-6.2615,-6.2698,-6.2743,-6.2806,-6.2805,-6.2737,-6.2962,-6.2868,-6.2968,-6.2968,-6.3017,-6.3014,-6.3309,-6.3049,-6.3049,-6.3048,-6.3048,0,-6.2158,-6.228,-6.2288,-6.2372,-6.2506,-6.2498,-6.263,-6.2654,-6.2701,-6.2787,-6.2752,-6.2833,-6.2827,-6.2908,-6.2908,-6.3036,-6.3057,-6.3063,-6.3061,-6.3065,-6.3064,-6.3094,-6.308,-6.3056,-6.3054,-6.3053,-6.3052,0,-6.2378,-6.2389,-6.2534,-6.2586,-6.2601,-6.2698,-6.2741,-6.2819,-6.2832,-6.2941,-6.2966,-6.2985,-6.3079,-6.3084,-6.3192,-6.3192,-6.3346,-6.333,-6.3327,-6.3323,-6.3422,-6.3412,-6.3746,-6.3788,-6.3503,-6.3505,-6.3508,0,-6.2527,-6.262,-6.2681,-6.2736,-6.2771,-6.2861,-6.2915,-6.2909,-6.2967,-6.3039,-6.3108,-6.3199,-6.3271,-6.3422,-6.3445,-6.3526,-6.3511,-6.3622,-6.3523,-6.3523,-6.351,-6.3504,-6.3512,-6.3641,-6.3644,-6.3647,-6.3649,0,-6.2789,-6.2789,-6.287,-6.2952,-6.3018,-6.3082,-6.3142,-6.3189,-6.3189,-6.3256,-6.3352,-6.3407,-6.3517,-6.3607,-6.3686,-6.3715,-6.3682,-6.368,-6.3707,-6.3712,-6.3705,-6.3708,-6.3378,-6.3672,-6.367,-6.3668,-6.3667,-6.3666,-6.2977,-6.3056,-6.3111,-6.3201,-6.3245,-6.3301,-6.3376,-6.3398,-6.3478,-6.3568,-6.3559,-6.3664,-6.3717,-6.382,-6.3855,-6.3936,-6.3898,-6.3938,-6.3947,-6.3957,-6.3966,-6.3694,-6.3951,-6.395,-6.395,-6.3949,-6.3949,0,-6.3235,-6.3268,-6.3351,-6.3435,-6.3505,-6.3469,-6.3532,-6.3592,-6.3686,-6.3738,-6.381,-6.3918,-6.4004,-6.4033,-6.4116,-6.4175,-6.4161,-6.4196,-6.4191,-6.4198,-6.3997,-6.3964,-6.4206,-6.4206,-6.4206,-6.4205,-6.4205,-6.4205,-6.3378,-6.3509,-6.3515,-6.3667,-6.3698,-6.3802,-6.3841,-6.3891,-6.3932,-6.4055,-6.4127,-6.4145,-6.4187,-6.4272,-6.4349,-6.4355,-6.4386,-6.4427,-6.4427,-6.4238,-6.4212,-6.4188,-6.4157,-6.4434,-6.4435,-6.462,-6.4622,-6.4623]}]]